Lakenheath RAF, United Kingdom

3:07 AM BST on April 25, 2018 (GMT +0100)
Lakenheath Air Base

Weather History for EGUL - October, 2012

Change the Weather History Date:

Tuesday, October 16, 2012

  Actual Average Record
Temperature  
Mean Temperature 52 °F -  
Max Temperature 57 °F - - ()
Min Temperature 45 °F - - ()
Degree Days  
Heating Degree Days 13    
Growing Degree Days 2 (Base 50)    
Moisture  
Dew Point 47 °F    
Average Humidity 83    
Maximum Humidity 94    
Minimum Humidity 48    
Precipitation  
Precipitation 0.04 in - - ()
Sea Level Pressure  
Sea Level Pressure 29.39 in    
Wind  
Wind Speed 15 mph ()    
Max Wind Speed 32 mph    
Max Gust Speed 40 mph    
Visibility 6.2 miles    
Events Rain    
T = Trace of Precipitation, MM = Missing Value Source: Averaged Metar Reports

Daily Weather History Graph

Daily Weather History Graph

Search for Another Location

Airport or City:

Astronomy

Oct. 16, 2012 Rise Set
Actual Time 7:25 AM BST 6:00 PM BST
Civil Twilight 6:50 AM BST 6:34 PM BST
Nautical Twilight 6:11 AM BST 7:13 PM BST
Astronomical Twilight 5:31 AM BST 7:53 PM BST
Moon 8:45 AM BST (10/16) 6:15 PM BST (10/16)
Length of Visible Light 11h 43m
Length of Day
10h 34m
New Moon, 1% of the Moon is Illuminated
Oct 16
New Moon
Oct 22
First Quarter
Oct 29
Full
Nov 7
Last Quarter
Nov 13
New

Hourly Weather History & Observations

Time (BST) Temp. Windchill Dew Point Humidity Pressure Visibility Wind Dir Wind Speed Gust Speed Precip Events Conditions
12:38 AM 51.8 °F - 48.2 °F 88% 29.45 in 6.2 mi SSE 9.2 mph - N/A Rain Light Rain
12:58 AM 51.1 °F - 48.0 °F 89% 29.45 in 6.2 mi SSE 9.2 mph - 0.00 in Rain Light Rain
12:59 AM 51.8 °F - 48.2 °F 88% 29.44 in 6.2 mi SSE 11.5 mph - N/A   Mostly Cloudy
1:01 AM 51.8 °F - 48.2 °F 88% 29.44 in 6.2 mi South 10.4 mph - N/A Rain Light Rain
1:15 AM 51.8 °F - 48.2 °F 88% 29.43 in 6.2 mi SSE 11.5 mph 19.6 mph N/A   Overcast
1:21 AM 51.8 °F - 48.2 °F 88% 29.43 in 6.2 mi SSE 10.4 mph - N/A Rain Light Rain
1:58 AM 51.1 °F - 48.9 °F 92% 29.42 in 6.2 mi SSE 10.4 mph - 0.03 in Rain Light Rain
2:17 AM 51.8 °F - 48.2 °F 88% 29.39 in 6.2 mi SSE 8.1 mph - N/A   Overcast
2:58 AM 52.2 °F - 49.3 °F 90% 29.36 in 6.2 mi SSE 12.7 mph 23.0 mph 0.00 in   Overcast
3:09 AM 51.8 °F - 50.0 °F 94% 29.34 in 6.2 mi SSE 16.1 mph 24.2 mph N/A   Overcast
3:12 AM 51.8 °F - 50.0 °F 94% 29.34 in 6.2 mi SSE 17.3 mph 24.2 mph N/A   Overcast
3:20 AM 51.8 °F - 50.0 °F 94% 29.33 in 6.2 mi SSE 13.8 mph 23.0 mph N/A   Overcast
3:22 AM 51.8 °F - 50.0 °F 94% 29.33 in 6.2 mi SSE 15.0 mph - N/A   Overcast
3:23 AM 51.8 °F - 50.0 °F 94% 29.33 in 6.2 mi SSE 15.0 mph 21.9 mph N/A   Overcast
3:27 AM 51.8 °F - 50.0 °F 94% 29.33 in 6.2 mi SSE 18.4 mph 26.5 mph N/A   Overcast
3:32 AM 51.8 °F - 50.0 °F 94% 29.33 in 6.2 mi SSE 15.0 mph 26.5 mph N/A   Light Drizzle
3:46 AM 51.8 °F - 50.0 °F 94% 29.31 in 6.2 mi SSE 17.3 mph 24.2 mph N/A Rain Light Rain
3:47 AM 51.8 °F - 50.0 °F 94% 29.32 in 6.2 mi SSE 16.1 mph 24.2 mph N/A Rain Light Rain
3:50 AM 51.8 °F - 50.0 °F 94% 29.31 in 6.2 mi SSE 18.4 mph 24.2 mph N/A Rain Light Rain
3:52 AM 51.8 °F - 50.0 °F 94% 29.31 in 6.2 mi SSE 13.8 mph 24.2 mph N/A Rain Light Rain
3:53 AM 51.8 °F - 50.0 °F 94% 29.31 in 6.2 mi SSE 15.0 mph 24.2 mph N/A Rain Rain
3:58 AM 52.3 °F - 50.0 °F 92% 29.31 in 6.2 mi SSE 18.4 mph 24.2 mph 0.01 in Rain Light Rain
4:06 AM 51.8 °F - 50.0 °F 94% 29.30 in 6.2 mi South 12.7 mph 24.2 mph N/A   Overcast
4:12 AM 51.8 °F - 50.0 °F 94% 29.30 in 6.2 mi South 15.0 mph 23.0 mph N/A   Overcast
4:13 AM 51.8 °F - 50.0 °F 94% 29.30 in 6.2 mi South 13.8 mph 23.0 mph N/A   Overcast
4:15 AM 51.8 °F - 50.0 °F 94% 29.30 in 6.2 mi South 13.8 mph 23.0 mph N/A   Overcast
4:18 AM 53.6 °F - 50.0 °F 88% 29.30 in 6.2 mi South 17.3 mph 24.2 mph N/A   Overcast
4:27 AM 53.6 °F - 50.0 °F 88% 29.30 in 6.2 mi South 15.0 mph 24.2 mph N/A   Overcast
4:28 AM 53.6 °F - 50.0 °F 88% 29.30 in 6.2 mi South 13.8 mph 21.9 mph N/A   Overcast
4:29 AM 53.6 °F - 50.0 °F 88% 29.30 in 6.2 mi South 13.8 mph 21.9 mph N/A   Overcast
4:30 AM 53.6 °F - 50.0 °F 88% 29.30 in 6.2 mi South 13.8 mph 21.9 mph N/A   Overcast
4:32 AM 53.6 °F - 50.0 °F 88% 29.30 in 6.2 mi South 12.7 mph 21.9 mph N/A   Overcast
4:35 AM 53.6 °F - 50.0 °F 88% 29.30 in 6.2 mi South 15.0 mph 21.9 mph N/A   Overcast
4:36 AM 53.6 °F - 50.0 °F 88% 29.30 in 6.2 mi South 13.8 mph - N/A   Overcast
4:43 AM 53.6 °F - 50.0 °F 88% 29.30 in 6.2 mi South 16.1 mph - N/A Rain Light Rain
4:44 AM 53.6 °F - 50.0 °F 88% 29.30 in 6.2 mi South 16.1 mph 21.9 mph N/A Rain Light Rain
4:51 AM 53.6 °F - 50.0 °F 88% 29.30 in 6.2 mi SSW 19.6 mph 25.3 mph N/A Rain Light Rain
4:52 AM 53.6 °F - 50.0 °F 88% 29.30 in 6.2 mi SSW 21.9 mph 25.3 mph N/A Rain Light Rain
4:53 AM 53.6 °F - 50.0 °F 88% 29.30 in 6.2 mi SSW 26.5 mph 34.5 mph N/A Rain Light Rain
4:54 AM 53.6 °F - 50.0 °F 88% 29.30 in 6.2 mi SSW 32.2 mph 40.3 mph N/A Rain Light Rain
4:55 AM 53.6 °F - 50.0 °F 88% 29.30 in 6.2 mi SW 32.2 mph 40.3 mph N/A Rain Light Rain
4:56 AM 53.6 °F - 50.0 °F 88% 29.31 in 6.2 mi SW 28.8 mph 40.3 mph N/A Rain Light Rain
4:58 AM 53.6 °F - 50.0 °F 88% 29.32 in 6.2 mi SW 29.9 mph 40.3 mph 0.00 in Rain Light Rain
4:59 AM 53.6 °F - 50.0 °F 88% 29.31 in 6.2 mi SW 29.9 mph 40.3 mph N/A Rain Light Rain
5:03 AM 51.8 °F - 50.0 °F 94% 29.31 in 6.2 mi SW 26.5 mph 40.3 mph N/A Rain Light Rain
5:05 AM 51.8 °F - 48.2 °F 88% 29.32 in 6.2 mi SW 25.3 mph 40.3 mph N/A Rain Light Rain
5:11 AM 51.8 °F - 48.2 °F 88% 29.32 in 6.2 mi WSW 27.6 mph 32.2 mph N/A   Overcast
5:13 AM 51.8 °F - 48.2 °F 88% 29.32 in 6.2 mi WSW 25.3 mph 32.2 mph N/A   Overcast
5:58 AM 49.1 °F - 43.9 °F 82% 29.36 in 6.2 mi WSW 18.4 mph - 0.00 in   Partly Cloudy
6:58 AM 48.6 °F - 42.4 °F 79% 29.37 in 6.2 mi SW 17.3 mph - N/A   Clear
7:58 AM 48.9 °F - 42.8 °F 79% 29.39 in 6.2 mi SSW 18.4 mph - N/A   Clear
7:59 AM 48.2 °F - 42.8 °F 82% 29.39 in 6.2 mi SSW 18.4 mph - N/A   Light Drizzle
8:08 AM 50.0 °F - 42.8 °F 76% 29.39 in 6.2 mi SSW 19.6 mph 24.2 mph N/A   Clear
8:58 AM 49.6 °F - 43.5 °F 79% 29.40 in 6.2 mi SW 21.9 mph 27.6 mph N/A   Clear
9:55 AM 51.8 °F - 42.8 °F 71% 29.42 in 6.2 mi SW 24.2 mph 31.1 mph N/A   Overcast
10:25 AM 51.8 °F - 42.8 °F 71% 29.43 in 6.2 mi WSW 24.2 mph 36.8 mph N/A   Scattered Clouds
10:26 AM 51.8 °F - 42.8 °F 71% 29.43 in 6.2 mi SW 23.0 mph 36.8 mph N/A   Light Drizzle
10:33 AM 51.8 °F - 42.8 °F 71% 29.44 in 6.2 mi SW 24.2 mph 31.1 mph N/A   Mostly Cloudy
10:58 AM 53.4 °F - 42.6 °F 67% 29.45 in 6.2 mi SW 27.6 mph 34.5 mph 0.00 in   Scattered Clouds
11:58 AM 55.0 °F - 41.0 °F 59% 29.47 in 6.2 mi WSW 31.1 mph 39.1 mph N/A   Mostly Cloudy
12:58 PM 54.9 °F - 39.6 °F 56% 29.49 in 6.2 mi WSW 27.6 mph 38.0 mph N/A   Partly Cloudy
1:58 PM 56.1 °F - 39.0 °F 53% 29.52 in 6.2 mi West 26.5 mph 33.4 mph N/A   Scattered Clouds
2:58 PM 56.8 °F - 39.9 °F 53% 29.53 in 6.2 mi WSW 25.3 mph 31.1 mph N/A   Mostly Cloudy
3:58 PM 57.0 °F - 37.4 °F 48% 29.55 in 6.2 mi West 23.0 mph 33.4 mph N/A   Mostly Cloudy
4:58 PM 56.7 °F - 37.9 °F 50% 29.57 in 6.2 mi WSW 19.6 mph 27.6 mph N/A   Mostly Cloudy
5:58 PM 52.9 °F - 38.1 °F 57% 29.58 in 6.2 mi WSW 12.7 mph - N/A   Clear
6:58 PM 49.6 °F - 39.0 °F 67% 29.62 in 6.2 mi SSW 5.8 mph - N/A   Clear
7:58 PM 48.0 °F - 39.9 °F 74% 29.64 in 6.2 mi SSW 8.1 mph - N/A   Clear
8:58 PM 47.1 °F - 39.9 °F 76% 29.65 in 6.2 mi South 4.6 mph - N/A   Clear
9:58 PM 48.6 °F - 41.2 °F 76% 29.65 in 6.2 mi South 8.1 mph - N/A   Mostly Cloudy
10:58 PM 47.8 °F - 41.0 °F 77% 29.65 in 6.2 mi South 6.9 mph - N/A   Partly Cloudy
11:58 PM 45.7 °F 42.7 °F 41.0 °F 84% 29.64 in 6.2 mi SE 5.8 mph - N/A   Clear